Weather in Gyantse

China     28°53′14″N   89°35′52″E
temp.,
°C
wind,
m/s
gust,
m/s
humid.,
%
clouds,
%
prec.,
mm/h
press.,
hPa
HPBL,
m
11 may, tue
tue1123:00+8sw23335 0.1 10051209
02:00+5sw334293 0.1 1008855
05:00+4sw2248100 0.0 1009609
08:00+3w1254100 0.1 1010769
11:00+6sw113964 0.0 10091453
14:00+11nw022499 0.0 10022853
17:00+13wsw341855 0.1 9953059
20:00+5e5357100 1.3 1005330
12 may, wed
wed1223:00+6ese3356100 0.3 1007593
02:00+6sse1147100 0.5 1005917
05:00+5ssw2347100 0.2 1006912
08:00+4s2248100 0.2 1008709
11:00+7sse233721 0.0 10071633
14:00+11sse2424100 0.0 10002741
17:00+13sse6519100 0.0 9943077
20:00+10sw662549 0.1 9972240
13 may, thu
thu1323:00+8sw333785 0.1 10021114
02:00+6sw224399 0.1 1003820
05:00+4s3450100 0.0 1005684
08:00+4sse2351100 0.0 1007767
11:00+6s2439100 0.0 10061605
14:00+11ssw452298 0.0 9992917
17:00+13s7719100 0.0 9943223
20:00+10ssw352952 0.2 9971837
14 may, fri
fri1423:00+8s34361 0.0 10011036
02:00+5ssw4646100 0.0 10041329
05:00+4s2347100 0.0 1004386
08:00+4s234799 0.0 1005813
11:00+7s353591 0.0 10031722
14:00+12ssw7923100 0.0 9963455
17:00+11wsw1727100 0.3 9932246
20:00+7ese144663 1.4 998754
15 may, sat
sat1523:00+6ssw344047 0.1 10021075
02:00+4ssw234859 0.1 1005672
05:00+3s234891 0.0 1005505
08:00+3ssw224878 0.1 1007441
11:00+6n124359 0.1 10081408
14:00+11nnw2722100 0.1 10013627
17:00+13nnw352092 0.0 9973163
20:00+12wnw361658 0.1 9972563